WetterOnline ( https://www.wetteronline.de )

Wetter aktuell Kranzbach

Aktuelles Wetter: Garmisch-Partenkirchen (719m)

6-stündlich | Neueste Meldungen
Ortszeit Temperatur Wetter
Fr, 25.06. 2:00 12.4° C Regen
Do, 24.06. 20:00 14.0° C starker Regen
Do, 24.06. 14:00 19.6° C bedeckt
Do, 24.06. 8:00 15.4° C wolkenlos
Do, 24.06. 2:00 15.7° C bedeckt
Mi, 23.06. 20:00 18.3° C Sprühregen
Mi, 23.06. 14:00 22.9° C leicht bewölkt
Mi, 23.06. 8:00 15.1° C bedeckt
Ortszeit Temperatur Wetter
Fr, 25.06. 5:30 12.0° C bedeckt
Fr, 25.06. 5:20 12.0° C bedeckt
Fr, 25.06. 5:10 12.3° C bedeckt
Fr, 25.06. 5:00 12.0° C Regen
Fr, 25.06. 4:50 12.0° C bedeckt
Fr, 25.06. 4:40 12.1° C Sprühregen
Fr, 25.06. 4:30 12.1° C leichter Regen
Fr, 25.06. 4:00 12.3° C Sprühregen
Fr, 25.06. 3:30 12.3° C leichter Regen
Fr, 25.06. 3:00 12.4° C Regen
Fr, 25.06. 2:30 12.4° C Regen
Ortszeit Relative Feuchte Sichtweite
Fr, 25.06. 2:00 97% 1.9 km
Do, 24.06. 20:00 99% 1.2 km
Do, 24.06. 14:00 67% >70 km
Do, 24.06. 8:00 81% >70 km
Do, 24.06. 2:00 96% 25 km
Mi, 23.06. 20:00 92% 21 km
Mi, 23.06. 14:00 61% 50 km
Mi, 23.06. 8:00 96% 40 km
Ortszeit Relative Feuchte Sichtweite
Fr, 25.06. 5:30 98% 40 km
Fr, 25.06. 5:20 98% -
Fr, 25.06. 5:10 98% -
Fr, 25.06. 5:00 98% 19 km
Fr, 25.06. 4:50 98% -
Fr, 25.06. 4:40 98% -
Fr, 25.06. 4:30 99% 21 km
Fr, 25.06. 4:00 99% 20 km
Fr, 25.06. 3:30 98% 8 km
Fr, 25.06. 3:00 99% 2.3 km
Fr, 25.06. 2:30 99% 1.3 km
Ortszeit Niederschlagsmenge Niederschlagsart
Fr, 25.06. 2:00 18 l/m2 in 6 Std. Regen
Do, 24.06. 20:00 27 l/m2 in 12 Std. Regen
Do, 24.06. 14:00 0.0 l/m2 in 6 Std. -
Do, 24.06. 8:00 0.1 l/m2 in 12 Std. -
Do, 24.06. 2:00 0.1 l/m2 in 6 Std. Regen
Mi, 23.06. 20:00 5 l/m2 in 12 Std. Regen
Mi, 23.06. 14:00 0.0 l/m2 in 6 Std. -
Mi, 23.06. 8:00 23 l/m2 in 12 Std. Regen
Ortszeit Niederschlagsmenge Niederschlagsart
Fr, 25.06. 5:30 0.0 l/m2 in 1 Std. -
Fr, 25.06. 5:20 keine Meldung -
Fr, 25.06. 5:10 keine Meldung -
Fr, 25.06. 5:00 0.1 l/m2 in 1 Std. Regen
Fr, 25.06. 4:50 keine Meldung -
Fr, 25.06. 4:40 keine Meldung -
Fr, 25.06. 4:30 0.1 l/m2 in 1 Std. -
Fr, 25.06. 4:00 2.6 l/m2 in 1 Std. Regen
Fr, 25.06. 3:30 2.0 l/m2 in 1 Std. -
Fr, 25.06. 3:00 8.2 l/m2 in 1 Std. Regen
Fr, 25.06. 2:30 3.5 l/m2 in 1 Std. -
Ortszeit Stärke Spitze Richtung
km/h Bft. km/h Grad Sektor
Fr, 25.06. 2:00 2 1 15 230° SW
Do, 24.06. 20:00 4 1 36 280° W
Do, 24.06. 14:00 18 3 43 40° NO
Do, 24.06. 8:00 4 1 18 160° S
Do, 24.06. 2:00 4 1 25 260° W
Mi, 23.06. 20:00 7 2 40 110° O
Mi, 23.06. 14:00 17 3 39 50° NO
Mi, 23.06. 8:00 4 1 7 210° SW
Ortszeit Stärke Spitze Richtung
km/h Bft. km/h Grad Sektor
Fr, 25.06. 5:30 4 1 7 240° SW
Fr, 25.06. 5:20 4 1 - 240° SW
Fr, 25.06. 5:10 4 1 - 270° W
Fr, 25.06. 5:00 4 1 7 220° SW
Fr, 25.06. 4:50 4 1 - 220° SW
Fr, 25.06. 4:40 2 1 - 170° S
Fr, 25.06. 4:30 2 1 4 190° S
Fr, 25.06. 4:00 4 1 7 210° SW
Fr, 25.06. 3:30 0 0 4 - -
Fr, 25.06. 3:00 0 0 7 - -
Fr, 25.06. 2:30 4 1 4 200° S
Ortszeit Untergrenze Bedeckung Gattung
total tief tief mittel hoch
Fr, 25.06. 2:00 150 m 8/8 8/8 - - -
Do, 24.06. 20:00 720 m 8/8 8/8 - - -
Do, 24.06. 14:00 1140 m 8/8 8/8 - - -
Do, 24.06. 8:00 - 0/8 0/8 - - -
Do, 24.06. 2:00 150 m 8/8 8/8 - - -
Mi, 23.06. 20:00 390 m 8/8 7/8 - - -
Mi, 23.06. 14:00 3000 m 2/8 1/8 - - -
Mi, 23.06. 8:00 1140 m 8/8 8/8 - - -
Ortszeit Bedeckungsgrad in Achtel und Wolkenuntergrenze
Fr, 25.06. 5:30 7(210m) 8(2100m)
Fr, 25.06. 5:20 7(210m) 8(2100m)
Fr, 25.06. 5:10 7(210m) 8(1800m) 8(2100m)
Fr, 25.06. 5:00 6(150m) 7(1800m) 8(2700m)
Fr, 25.06. 4:50 6(150m) 7(1800m) 8(2700m)
Fr, 25.06. 4:40 5(90m) 8(2700m) 8(3900m)
Fr, 25.06. 4:30 6(90m) 8(2100m) 8(3000m)
Fr, 25.06. 4:00 5(150m) 7(1800m) 8(2100m)
Fr, 25.06. 3:30 1(180m) 7(1800m)
Fr, 25.06. 3:00 1(60m) 6(1500m) 8(1800m)
Fr, 25.06. 2:30 1(900m) 7(1200m) 7(1410m)
Ortszeit Luftdruck NN (hPa) Tendenz (hPa in 3 Std.)
Fr, 25.06. 2:00 1021 + 0,3
Do, 24.06. 20:00 1019 + 1,9
Do, 24.06. 14:00 1015 + 0,4
Do, 24.06. 8:00 1017 - 1,0
Do, 24.06. 2:00 1018 + 2,5
Mi, 23.06. 20:00 1013 - 1,5
Mi, 23.06. 14:00 1014 - 1,1
Mi, 23.06. 8:00 1018 + 0,9
Ortszeit Luftdruck NN (hPa) Tendenz (hPa in 3 Std.)
Fr, 25.06. 5:30 1020 - 0,5
Fr, 25.06. 5:20 1020 keine Meldung
Fr, 25.06. 5:10 1020 keine Meldung
Fr, 25.06. 5:00 1020 - 0,5
Fr, 25.06. 4:50 1020 keine Meldung
Fr, 25.06. 4:40 1020 keine Meldung
Fr, 25.06. 4:30 1020 - 0,3
Fr, 25.06. 4:00 1021 0,0
Fr, 25.06. 3:30 1021 + 0,2
Fr, 25.06. 3:00 1021 + 0,5
Fr, 25.06. 2:30 1021 + 0,6
Ortszeit Schneehöhe (cm)
Fr, 25.06. 2:00 0
Do, 24.06. 20:00 0
Do, 24.06. 14:00 0
Do, 24.06. 8:00 0
Do, 24.06. 2:00 0
Mi, 23.06. 20:00 0
Mi, 23.06. 14:00 0
Mi, 23.06. 8:00 0
Ortszeit Schneehöhe (cm)
Fr, 25.06. 5:30 0
Fr, 25.06. 5:20 0
Fr, 25.06. 5:10 0
Fr, 25.06. 5:00 0
Fr, 25.06. 4:50 0
Fr, 25.06. 4:40 0
Fr, 25.06. 4:30 0
Fr, 25.06. 4:00 0
Fr, 25.06. 3:30 0
Fr, 25.06. 3:00 0
Fr, 25.06. 2:30 0
Link zu dieser Seite / Seite empfehlen

Das Wetter in ...